Content
SEND FEEDBACK

Daily
Averages
Monthly
Summary
United States of America

SOLEDAD, CALIFORNIA


Home > North America > United States > California
Elevation: 200 feet     Latitude: 36 26N     Longitude: 121 19W

WEATHER
 
SELECT A DAY
Number of Records: 199,390;   Date Range: 1/1/95 - 7/26/14
 
SHARE

PRINT THIS DATA

[ ← Previous Day ]
WEATHER ALMANAC - NOVEMBER 12, 2013
[ Next Day → ]
[ °C ]   °F
Weather ElementAverageHighLow
Temperature60.1 °F71.1 °F (1:53 pm)52 °F (10:53 pm)
Dewpoint48.3 °F50 °F (1:53 am)45 °F (10:53 am)
Humidity66.9 %83 % (11:53 pm)41 % (1:53 pm)
Barometer30.24 in30.27 in (5:53 am)30.20 in (1:53 am)
Wind Speed5.2 mph11.5 mph (8:53 am)
Weather ElementAverage
Visibility9.5 mi
Wind DirectionS (180 °)

Weather ElementTotal
Precipitation---
Heating Degree Days3.5 (Base 65)
Growing Degree Days11.6 (Base 50)
Averaged from 23 records on November 12, 2013
WEATHER CONDITIONS BREAKOUT
WIND DIRECTION BREAKOUT
WEATHER BY HOUR - NOVEMBER 12, 2013
[ °C ]   °F
Local TimeTemperatureDewpointHumidityBarometerVisibilityWind DirectionWind SpeedGust SpeedPrecipitationEventsConditions
1:53 AM55.9 °F50.0 °F80 %30.20 in7.0 miCalm
2:53 AM57.0 °F46.9 °F69 %30.20 in10.0 miNorth (10°)3.5 mph
3:53 AM55.0 °F48.9 °F80 %30.24 in8.0 miNNW (330°)3.5 mph
4:53 AM55.0 °F48.9 °F80 %30.26 in7.0 miCalm
5:53 AM55.0 °F48.9 °F80 %30.27 in8.0 miNNE (20°)6.9 mph
6:53 AM55.0 °F48.9 °F80 %30.27 in10.0 miCalm
7:53 AM55.9 °F48.0 °F75 %30.26 in9.0 miEast (90°)8.1 mph
8:53 AM57.9 °F48.9 °F72 %30.25 in10.0 miEast (100°)11.5 mph
9:53 AM62.1 °F48.9 °F62 %30.25 in10.0 miESE (110°)4.6 mphMostly Cloudy
10:53 AM66.9 °F45.0 °F45 %30.27 in10.0 miENE (70°)5.8 mphMostly Cloudy
11:53 AM69.1 °F46.9 °F45 %30.25 in10.0 miWest (280°)6.9 mphPartly Cloudy
12:53 PM69.1 °F46.9 °F45 %30.23 in10.0 miWest (270°)6.9 mphPartly Cloudy
1:53 PM71.1 °F46.0 °F41 %30.21 in10.0 miWest (260°)6.9 mphClear
2:53 PM68.0 °F48.0 °F49 %30.22 in10.0 miWest (270°)10.4 mphClear
3:53 PM66.9 °F48.9 °F52 %30.21 in10.0 miWest (270°)8.1 mphClear
4:53 PM64.9 °F50.0 °F58 %30.22 in10.0 miWest (280°)5.8 mphClear
5:53 PM62.1 °F48.9 °F62 %30.24 in10.0 miWest (260°)8.1 mphClear
6:53 PM60.1 °F50.0 °F69 %30.26 in10.0 miWNW (300°)4.6 mphClear
7:53 PM57.9 °F50.0 °F75 %30.26 in10.0 miNorth (350°)6.9 mphClear
8:53 PM57.0 °F50.0 °F77 %30.27 in10.0 miNW (310°)3.5 mphClear
9:53 PM55.9 °F50.0 °F80 %30.27 in10.0 miNW (310°)4.6 mphClear
10:53 PM52.0 °F46.0 °F80 %30.26 in10.0 miCalmClear
11:53 PM52.0 °F46.9 °F83 %30.26 in10.0 miWSW (250°)3.5 mphClear
Hourly data recorded from KSNS, located miles away from Soledad, California







STORIES FROM OUR PARTNERS